User: anonymous   Login
Location: Grange Verzio
(44.5000°N, 6.9833°E)
Time: 20:06:17
(UTC+00:00)
Language:

ONEWEB-0679 - Orbit

View from above orbital plane
View from above orbital plane
View from above satellite
View from above satellite

Ground track
Ground track

The orbit data is extracted from the following two-line orbital elements,

1 56715U 23068F   24058.49960694 -.00000045  00000-0 -15139-3 0  9992
2 56715  87.9073  36.1003 0001949 109.2080 250.9262 13.16584209 41804
Epoch (UTC): 27 February 2024 11:59:26
Eccentricity: 0.0001949
inclination: 87.9073°
perigee height: 1196 km
apogee height: 1199 km
right ascension of ascending node: 36.1003°
argument of perigee: 109.2080°
revolutions per day: 13.16584209
mean anomaly at epoch: 250.9262°
orbit number at epoch: 4180

The dashed part of the orbit path shows where the satellite is in the earth's shadow,  

DLR